User: anonymous   Login
Location: Poprad
(49.0500°N, 20.3000°E)
Time: 02:38:41
(UTC+02:00)
Language:

EO-79 - Orbit

View from above orbital plane
View from above orbital plane
View from above satellite
View from above satellite

Ground track
Ground track

The orbit data is extracted from the following two-line orbital elements,

1 40025U 14033R   24108.88143728  .00016092  00000-0  13481-2 0  9995
2 40025  98.0353  67.7293 0009973   7.5105 352.6264 14.98467212534353
Epoch (UTC): 17 April 2024 21:09:16
Eccentricity: 0.0009973
inclination: 98.0353°
perigee height: 565 km
apogee height: 578 km
right ascension of ascending node: 67.7293°
argument of perigee: 7.5105°
revolutions per day: 14.98467212
mean anomaly at epoch: 352.6264°
orbit number at epoch: 53435

The dashed part of the orbit path shows where the satellite is in the earth's shadow,  

DLR